RH
94 97 97 98 97 96 91 71 20 34 40 40 13 13 19 30 53 75 92 98 95 91 67 59 49 41 23 27 22 19 15 14 33 55 66 75 73 72 80 76 72 80 68 50 56 52 54
90 94 93 98 96 90 76 54 42 18 16 15 12 12 20 38 45 64 74 74 62 56 31 20 17 16 16 29 18 18 15 14 24 42 54 70 75 68 77 74 73 60 50 51 52 53 52
73 80 89 95 87 69 44 28 22 22 13 11 9 10 19 38 40 58 62 52 30 28 46 25 28 12 19 19 19 17 20 21 22 40 50 54 60 68 67 80 52 69 63 53 58 52 55
64 74 84 85 72 51 27 20 18 14 11 8 9 10 16 34 38 60 52 48 55 48 33 21 18 12 19 16 16 15 22 25 32 37 24 18 17 30 38 44 38 58 54 58 58 44 55
66 62 69 82 68 45 38 16 14 14 11 7 10 12 16 23 34 52 45 27 20 20 22 21 13 17 21 14 19 19 20 21 20 18 19 19 25 47 44 61 45 46 58 50 44 51 38
54 65 60 67 59 43 24 18 15 12 9 5 10 12 16 13 31 46 36 21 16 19 14 13 13 16 17 21 19 22 19 20 23 21 32 39 57 54 50 50 31 48 46 55 65 41 48
53 58 69 62 47 21 18 15 13 12 8 4 11 13 18 12 27 21 18 26 24 28 24 25 25 24 22 20 20 26 23 19 24 32 36 43 46 59 57 58 64 75 81 61 53 44 48
38 52 60 72 47 24 19 18 14 12 8 4 10 11 18 17 15 25 30 36 46 24 27 25 23 23 21 24 30 30 19 24 30 36 39 49 54 47 32 33 40 54 70 59 40 34 36
31 48 59 64 64 34 20 16 13 13 7 5 9 8 22 22 12 28 40 53 34 31 36 27 26 25 27 25 40 43 33 27 34 40 43 52 47 43 27 36 39 40 53 47 54 47 56
38 36 44 55 64 45 21 18 14 12 7 5 11 9 18 28 13 34 51 53 46 41 30 26 25 26 26 26 34 34 36 26 30 36 38 39 34 28 28 33 41 39 41 46 52 60 51
53 36 40 29 54 48 24 20 15 12 6 5 11 12 15 17 18 29 50 56 59 41 42 32 25 22 30 34 34 37 35 30 36 37 25 37 31 36 36 34 37 39 43 52 53 63 63
84 41 38 48 35 46 24 23 18 15 6 6 13 18 16 18 42 52 53 55 54 32 47 36 32 30 31 37 42 44 42 40 36 36 38 38 33 33 32 33 35 45 56 52 62 65 78
92 75 40 45 42 45 26 23 17 24 6 8 16 20 24 26 36 66 58 45 25 33 32 35 38 37 42 41 52 52 52 59 45 43 41 38 41 34 36 43 44 62 59 52 42 66 46
94 90 49 50 42 50 21 21 18 17 18 4 19 24 26 28 43 67 50 28 11 29 32 40 41 45 44 41 49 66 69 63 57 58 67 58 62 37 39 50 61 66 72 68 28 74 58
99 93 68 57 55 48 24 20 19 12 8 9 23 30 26 35 38 67 30 21 12 32 42 46 36 41 57 51 43 72 85 76 61 60 44 66 47 45 45 48 52 60 67 72 91 84 90
100 98 85 62 47 57 27 23 23 12 8 10 32 29 30 41 44 38 31 24 37 44 44 34 24 36 51 58 38 69 84 67 62 55 54 67 45 43 52 51 49 61 59 81 79 75 85
100 100 91 76 51 37 32 27 26 12 14 22 35 36 33 45 35 33 32 32 48 44 39 34 39 56 48 49 43 76 65 67 60 59 70 72 52 53 60 71 68 60 70 84 76 85 85
100 100 98 88 63 60 39 38 19 8 23 32 36 23 35 44 32 51 43 47 46 51 48 50 51 56 58 54 65 79 85 72 57 59 81 80 84 87 80 57 53 60 73 77 73 64 99
100 100 100 94 62 58 44 32 42 11 19 30 36 38 39 35 28 47 53 48 47 50 49 57 56 50 48 50 58 74 70 47 47 60 85 88 90 83 44 72 73 76 79 87 89 92 95
100 100 100 98 83 70 53 50 39 18 20 29 49 44 44 46 48 43 55 54 52 50 52 52 51 46 59 59 67 84 72 54 49 52 55 60 92 55 45 44 83 99 75 71 74 100 91
100 100 100 98 87 76 65 73 47 34 36 41 67 59 50 52 47 54 58 55 61 71 53 53 59 56 63 89 68 71 77 60 49 55 48 68 74 96 97 98 93 90 83 77 80 79 74
99 99 100 100 99 90 79 81 68 44 48 62 84 76 78 80 58 56 63 78 56 63 74 63 67 63 59 73 58 78 85 86 72 41 48 69 62 85 60 93 84 97 87 86 78 84 85
99 100 100 100 99 99 90 95 72 60 70 72 79 60 60 73 64 76 72 57 55 69 67 64 72 72 68 45 62 79 78 84 80 66 59 61 87 64 40 95 84 64 78 82 83 84 71
93 100 100 100 100 99 97 94 90 84 83 59 64 61 91 91 60 54 47 50 56 54 78 72 64 71 71 57 65 70 81 76 73 80 67 78 78 83 75 83 43 45 85 88 70 80 76
100 100 100 100 100 100 98 99 96 86 89 67 72 61 96 96 65 82 58 85 81 78 76 63 72 67 60 75 85 88 88 85 96 90 78 83 86 98 85 94 56 50 84 87 86 64 68
99 100 100 100 100 99 100 100 92 85 94 99 93 66 91 89 79 84 88 85 89 84 79 84 74 62 75 84 83 76 72 73 99 96 58 71 82 76 99 87 46 45 79 84 61 50 51
99 98 100 100 100 99 100 99 99 95 99 99 81 84 93 88 89 88 87 88 83 82 88 91 86 88 79 91 85 86 75 78 76 92 97 82 79 74 87 91 68 66 79 74 42 49 74
99 100 98 100 100 100 99 98 98 99 100 90 94 100 60 94 91 87 85 81 79 82 86 94 84 88 95 93 84 82 82 77 64 74 82 78 76 81 90 88 54 74 57 49 62 72 83
98 100 100 100 100 100 99 98 99 100 94 91 82 56 43 80 95 81 77 80 81 84 87 81 84 88 82 87 95 88 82 92 75 55 61 60 64 67 63 59 75 76 71 82 81 81 72
Wind_Speed
6 6 6 6 8 9 10 11 12 14 15 16 16 16 15 14 12 13 14 14 15 16 17 12 5 1 2 7 4 23 16 8 6 7 6 4 4 3 5 4 4 4 5 12 11 18 14
5 5 6 6 6 8 9 11 12 13 14 15 15 15 14 12 10 11 15 11 15 15 18 16 10 6 5 7 14 21 9 8 9 7 6 5 3 3 5 4 5 6 12 8 11 15 7
4 4 4 4 5 7 8 9 11 13 14 15 14 14 12 10 9 9 10 16 19 15 4 9 3 11 14 5 18 21 11 9 10 10 5 7 5 6 2 4 5 5 5 8 12 8 5
3 4 4 3 4 6 7 9 11 12 13 14 12 12 10 8 8 8 9 6 2 2 3 6 8 6 6 11 19 25 16 23 17 18 20 14 16 8 5 2 6 5 5 3 4 9 3
4 4 4 3 3 5 7 8 10 12 13 15 13 12 9 7 6 8 8 7 9 9 5 3 4 6 3 9 16 21 16 7 17 25 22 17 12 5 6 4 4 8 2 4 5 5 5
3 4 4 2 3 4 5 8 9 10 13 14 12 11 8 7 7 12 11 12 13 2 7 4 9 5 6 4 9 15 9 10 11 5 8 11 6 4 6 4 3 3 2 1 3 2 6
3 4 4 3 2 2 5 6 8 11 12 12 12 11 8 6 11 17 14 1 5 7 16 4 3 4 4 10 6 18 14 5 7 9 5 7 9 7 4 4 4 5 4 4 4 1 1
4 4 4 5 3 3 4 6 8 10 12 11 10 11 8 5 6 13 8 5 5 8 6 8 4 4 9 3 7 23 17 6 7 6 3 7 7 4 6 5 5 3 3 3 5 2 3
6 5 5 5 5 4 3 5 7 9 11 12 9 10 7 5 3 4 6 8 12 7 6 2 3 3 4 8 6 11 9 3 8 7 5 5 5 5 5 4 5 2 4 3 5 3 2
9 7 6 6 6 5 4 4 6 8 10 11 9 8 4 1 1 5 5 13 10 3 4 1 3 5 5 1 5 8 9 3 5 7 6 6 1 5 4 4 1 4 5 3 5 3 1
10 9 8 6 6 5 4 4 5 8 9 9 6 7 6 2 7 3 6 12 5 2 3 2 2 2 5 6 1 9 8 6 5 3 4 3 3 3 3 2 1 2 3 4 2 2 1
13 11 10 9 6 6 5 4 5 7 9 8 3 4 1 2 5 6 12 10 2 4 6 2 1 2 4 6 4 5 6 8 2 6 8 3 1 3 0 1 0 5 2 2 3 2 1
16 13 12 10 7 7 6 4 4 7 9 7 2 3 4 3 3 9 14 3 4 3 4 4 2 3 4 4 5 6 5 5 2 5 1 1 1 1 2 2 2 5 3 2 3 2 3
19 16 15 13 10 8 7 5 3 7 9 8 1 3 4 6 6 12 4 4 3 3 4 2 4 4 3 1 2 3 2 2 3 3 3 5 3 1 3 2 2 2 2 4 4 2 3
23 20 17 15 12 10 8 5 2 6 7 5 5 3 1 4 9 9 4 1 5 4 6 8 3 4 3 2 4 3 1 3 2 2 5 4 2 1 4 2 1 1 3 2 5 1 2
27 23 20 17 13 11 9 6 2 3 5 1 4 3 2 3 12 4 3 5 2 2 5 3 7 4 8 6 5 4 5 3 3 1 3 4 3 1 4 1 7 4 3 3 2 0 5
29 28 24 19 14 14 11 7 4 2 1 4 5 2 1 13 7 3 3 4 2 1 2 4 5 5 4 7 7 5 5 2 3 2 4 3 3 2 3 3 3 2 1 5 4 2 4
34 32 27 22 18 16 13 9 6 3 5 4 4 1 2 11 2 0 3 3 3 3 1 2 4 3 6 6 4 5 8 2 6 5 5 2 4 3 1 1 1 3 5 4 4 4 1
39 34 29 25 23 19 16 12 9 4 5 5 2 2 2 3 4 3 2 2 3 5 4 5 3 2 2 6 3 3 5 3 5 5 6 5 0 2 3 4 1 3 4 4 5 3 6
37 34 29 27 25 22 19 16 12 8 6 4 2 1 0 1 2 4 5 5 5 1 3 3 4 4 4 2 2 5 3 3 3 3 6 4 2 6 6 4 4 5 5 5 5 3 4
32 35 30 28 28 25 22 18 17 11 10 5 2 3 0 3 3 3 4 6 6 7 2 4 2 6 7 4 3 5 4 3 2 3 3 4 5 3 1 1 1 4 7 13 10 6 8
30 32 30 30 28 26 24 22 19 15 16 4 3 2 1 1 3 4 6 6 9 5 9 6 5 8 6 7 7 9 8 5 6 3 3 2 2 2 3 1 1 5 7 10 14 5 10
18 32 33 32 30 27 23 23 20 18 18 5 5 1 2 4 3 3 4 6 9 10 4 2 6 6 5 3 5 3 5 6 5 8 5 4 6 3 5 3 3 8 14 19 7 5 9
13 31 35 34 32 29 26 23 21 19 21 6 7 5 3 3 6 5 3 2 5 6 5 1 4 5 6 17 12 8 10 10 9 6 2 6 5 3 3 3 1 6 2 2 13 5 13
13 22 38 36 32 30 25 24 22 21 19 10 9 5 3 3 3 2 5 5 6 4 3 3 3 1 21 4 4 4 3 4 2 6 4 3 5 2 4 4 6 4 6 8 9 10 18
17 13 37 37 34 28 26 23 21 20 17 18 13 9 5 2 5 5 4 5 4 3 3 3 6 21 1 2 3 5 6 4 3 1 3 3 4 3 3 4 7 5 2 3 4 7 9
19 22 31 38 33 31 27 22 19 18 16 18 9 13 5 3 2 3 3 5 5 3 3 5 6 2 2 2 2 3 4 0 5 7 6 3 1 6 4 4 8 3 4 3 6 7 2
23 23 27 39 38 33 28 22 19 19 18 17 7 14 6 1 2 3 3 3 3 3 5 6 4 2 2 4 4 4 3 5 2 3 6 8 9 4 3 2 10 7 4 8 3 4 2
16 15 27 41 39 33 27 22 19 19 15 14 5 11 9 6 3 4 7 5 1 0 4 10 0 4 6 3 2 3 2 2 3 3 1 4 5 5 9 5 1 7 2 2 3 2 5
Wind_Direction
31 30 39 38 35 32 29 26 33 30 25 22 22 20 20 28 48 57 62 78 88 103 124 131 101 24 41 46 44 348 354 24 70 99 88 101 72 103 113 107 89 84 87 56 83 74 76
21 24 23 33 35 35 30 28 24 31 27 25 24 22 22 32 55 69 84 95 96 104 105 93 65 81 67 68 347 0 12 62 75 91 82 64 124 117 87 80 77 97 86 78 68 88 62
6 14 32 29 30 32 33 28 27 24 26 27 27 26 25 37 54 91 97 107 112 109 74 39 69 86 68 74 15 25 56 50 71 86 79 45 73 76 93 80 4 124 93 49 17 13 73
354 3 4 23 29 32 32 25 23 22 19 20 28 35 43 46 55 116 122 123 58 36 98 32 27 71 96 7 24 36 77 74 90 87 81 75 85 87 50 351 29 39 58 35 26 8 42
330 350 352 351 28 27 23 26 21 15 13 13 21 26 46 71 67 113 118 95 87 82 50 352 9 74 44 9 14 19 42 71 81 77 62 61 60 74 19 74 49 16 87 14 342 41 8
310 315 332 331 2 15 18 17 17 17 11 10 17 21 37 80 111 134 122 108 67 280 348 25 40 51 7 323 359 5 50 70 62 38 31 33 47 61 31 57 165 144 123 283 254 12 32
287 300 309 311 317 350 8 12 8 12 13 10 10 14 11 95 145 140 136 101 20 359 28 53 337 86 332 330 37 12 6 50 40 48 74 20 76 94 89 56 125 125 133 211 268 131 347
282 287 293 297 288 317 354 7 7 7 6 11 10 12 359 142 100 187 197 83 124 149 70 30 28 52 40 355 29 1 22 65 48 86 53 53 103 174 99 78 123 134 126 230 283 243 277
275 275 276 285 284 292 330 356 4 4 4 4 15 14 24 149 67 136 128 115 126 121 96 340 2 19 332 33 46 341 20 73 70 64 60 110 144 165 89 52 101 122 145 205 219 306 67
262 265 263 269 274 283 311 338 357 4 5 3 7 20 35 191 157 108 92 139 133 95 88 179 322 353 354 30 55 23 17 91 55 117 96 90 48 133 119 89 243 157 187 267 288 26 305
258 257 258 262 260 268 291 322 340 355 4 5 15 24 44 26 133 96 134 145 128 104 347 40 40 32 19 71 295 354 4 37 99 120 136 193 135 114 92 17 164 207 315 288 277 195 87
251 253 254 250 253 258 269 310 333 348 1 1 38 47 348 16 65 121 147 150 103 51 250 151 43 13 58 21 30 327 24 39 121 72 61 105 39 61 356 13 105 315 6 74 65 104 41
246 247 246 243 242 243 260 284 322 339 352 354 87 101 71 52 110 138 143 105 45 179 34 168 150 85 75 31 27 30 23 21 122 110 138 45 57 39 38 93 74 27 54 2 354 355 246
243 245 237 234 230 229 235 261 318 343 347 349 132 155 95 61 131 145 124 61 207 118 192 136 107 84 111 105 46 19 51 107 57 94 115 153 246 177 333 74 149 19 101 141 242 251 283
236 240 235 226 223 221 227 244 300 344 345 345 147 176 82 33 158 165 75 111 225 177 153 145 73 136 173 169 138 113 51 197 215 147 145 139 142 87 63 78 60 118 70 161 102 277 294
237 235 233 225 224 219 220 230 258 326 329 296 126 163 62 112 148 116 85 251 208 146 123 124 177 168 179 190 158 173 184 197 180 95 171 204 90 262 158 13 44 107 139 117 61 79 274
234 237 222 219 220 228 216 209 221 272 315 160 124 124 11 134 136 67 205 227 167 192 132 163 175 144 178 172 170 185 184 330 195 98 77 124 81 222 107 19 143 129 66 52 109 133 196
238 230 224 212 210 215 207 203 205 213 156 174 116 234 166 157 112 104 192 175 143 158 104 104 111 117 168 164 150 196 196 229 158 145 144 177 139 153 130 113 25 93 177 148 140 229 159
236 227 227 207 204 204 205 197 197 200 165 150 121 127 120 179 206 195 167 196 199 161 186 158 147 150 130 165 125 165 149 68 147 149 163 184 264 58 339 358 354 219 186 113 103 80 203
236 228 220 206 203 201 202 197 183 184 178 163 115 208 219 84 328 150 153 209 201 238 147 132 136 106 115 128 39 166 139 158 138 169 142 95 130 179 194 190 126 180 182 179 136 142 185
238 232 226 203 202 200 203 193 183 183 177 155 60 237 23 196 228 187 175 151 158 188 195 172 185 206 162 128 103 178 148 125 64 161 77 127 202 164 294 279 106 205 183 185 203 179 195
229 238 228 203 200 202 198 198 178 175 173 131 141 172 345 108 121 135 201 213 191 169 162 214 219 166 168 159 187 184 137 186 187 108 130 12 167 102 314 327 195 269 226 212 215 214 262
248 243 235 206 203 199 199 190 180 179 178 164 159 184 115 179 148 151 213 213 199 139 220 39 166 123 160 184 114 90 82 73 121 146 146 135 137 104 259 343 345 290 227 200 188 200 183
276 234 233 209 205 198 193 195 182 182 187 189 148 144 118 248 190 199 190 130 176 192 146 112 124 119 121 120 111 75 63 72 64 37 59 135 106 83 197 10 311 243 194 198 217 222 216
276 246 229 214 203 195 197 192 184 185 191 200 181 164 119 248 194 156 161 119 77 54 82 93 29 78 157 112 84 72 13 28 50 37 28 18 122 114 151 206 294 289 194 168 174 258 206
276 278 225 209 203 200 194 184 185 189 185 193 196 171 116 159 226 98 145 170 153 144 94 80 30 141 261 109 131 160 199 184 224 163 43 69 68 126 138 191 225 247 216 191 134 294 212
288 262 227 212 200 192 189 179 180 189 184 193 182 183 141 199 125 142 169 170 148 117 105 125 150 215 340 128 152 168 219 131 185 181 169 149 158 212 195 240 284 217 158 159 103 242 325
297 265 228 211 193 182 173 173 178 168 179 189 178 193 184 138 82 27 25 138 126 166 154 145 114 228 139 196 180 193 173 207 154 151 176 167 162 190 112 174 268 145 106 176 239 321 281
302 253 215 196 180 169 165 163 167 158 178 198 141 183 198 81 97 93 90 81 35 63 126 182 16 149 163 153 200 108 162 143 175 238 309 221 197 177 193 211 323 227 133 259 188 310 357